Tracking 26325 objects as of 29-Nov-2022
HD Live streaming from Space Station
objects crossing your sky now

COSMOS 1375 DEB

Track COSMOS 1375 DEB now!
10-day predictions


NORAD ID: 16203
Int'l Code: 1982-055E
Perigee: 882.8 km
Apogee: 995.7 km
Inclination: 65.8 °
Period: 103.7 minutes
Semi major axis: 7310 km
RCS: 0.1211 m2 (medium)
Launch date: June 6, 1982
Source: Commonwealth of Independent States (former USSR) (CIS)
Launch site: PLESETSK MISSILE AND SPACE COMPLEX (PKMTR)

Note: This is SATELLITE DEBRIS
aabbcc
Your satellite tracking list
Your tracking list is empty




NASA's NSSDC Master Catalog

Two Line Element Set (TLE):
1 16203U 82055E   22332.35989095 -.00000059  00000-0  19685-4 0  9990
2 16203  65.8346 295.8189 0077236 285.0816 238.5002 13.88997370 50586
Source of the keplerian elements: AFSPC